User: anonymous   Login
Location: 相模原市立博物館
(35.5593°N, 139.3931°E)
Time: 04:38:10
(UTC+09:00)
Language:

ITAMSAT 1 - Orbit

View from above orbital plane
View from above orbital plane
View from above satellite
View from above satellite

Ground track
Ground track

The orbit data is extracted from the following two-line orbital elements,

1 22826U 93061D   22021.58284438  .00000020  00000-0  25384-4 0  9996
2 22826  98.8977  49.2803 0010006 105.3761 254.8527 14.30482415477414
Epoch (UTC): 21 January 2022 13:59:17
Eccentricity: 0.0010006
inclination: 98.8977°
perigee height: 783 km
apogee height: 797 km
right ascension of ascending node: 49.2803°
argument of perigee: 105.3761°
revolutions per day: 14.30482415
mean anomaly at epoch: 254.8527°
orbit number at epoch: 47741

The dashed part of the orbit path shows where the satellite is in the earth's shadow,  

DLR